Weather History for Trenton, NJ

Change the Weather History Date:

Thursday, August 22, 2013

  Actual Average Record
Temperature  
Mean Temperature 77 °F 73 °F  
Max Temperature 83 °F 83 °F 97 °F (1916)
Min Temperature 70 °F 64 °F 50 °F (1982)
Degree Days  
Heating Degree Days 0 0  
Month to date heating degree days 0 0  
Since 1 June heating degree days 4 24  
Since 1 July heating degree days 0 0  
Cooling Degree Days 12 8  
Month to date cooling degree days 150 211  
Year to date cooling degree days 872 788  
Since 1 June cooling degree days 782 731  
Growing Degree Days 25 (Base 50)    
Moisture  
Dew Point 70 °F    
Average Humidity 85    
Maximum Humidity 93    
Minimum Humidity 76    
Precipitation  
Precipitation 0.43 in 0.14 in 3.29 in (2009)
Month to date precipitation 3.53 3.06  
Year to date precipitation 31.95 29.94  
Sea Level Pressure  
Sea Level Pressure 29.99 in    
Wind  
Wind Speed 5 mph (SSW)    
Max Wind Speed 20 mph    
Max Gust Speed 26 mph    
Visibility 7 miles    
Events Rain , Thunderstorm    
T = Trace of Precipitation, MM = Missing Value Source: NWS Daily Summary

Daily Weather History Graph

Daily Weather History Graph

Search for Another Location

Airport:

Trip Planner

Search our weather history database for the weather conditions in past years. The results will help you decide how hot, cold, wet, or windy it might be!

Date:

Astronomy

Aug. 22, 2013 Rise Set
Actual Time 6:17 AM EDT 7:46 PM EDT
Civil Twilight 5:48 AM EDT 8:14 PM EDT
Nautical Twilight 5:14 AM EDT 8:48 PM EDT
Astronomical Twilight 4:37 AM EDT 9:25 PM EDT
Moon 8:28 PM EDT (8/22) 8:03 AM EDT (8/22)
Length of Visible Light 14h 25m
Length of Day
13h 28m
Waning Gibbous, 97% of the Moon is Illuminated
Aug 22
Waning Gibbous
Aug 28
Last Quarter
Sep 5
New
Sep 12
First Quarter
Sep 19
Full

Hourly Weather History & Observations

Time (EDT) Temp. Dew Point Humidity Pressure Visibility Wind Dir Wind Speed Gust Speed Precip Events Conditions
12:53 AM 73.9 °F 69.1 °F 85% 30.05 in 9.0 mi SSW 3.5 mph - N/A   Clear
1:53 AM 75.0 °F 69.1 °F 82% 30.06 in 10.0 mi Calm Calm - N/A   Clear
2:53 AM 73.9 °F 69.1 °F 85% 30.06 in 10.0 mi Calm Calm - N/A   Mostly Cloudy
3:53 AM 73.9 °F 68.0 °F 82% 30.03 in 10.0 mi Calm Calm - N/A   Clear
4:48 AM 73.4 °F 69.8 °F 88% 30.04 in 10.0 mi Calm Calm - N/A   Mostly Cloudy
4:53 AM 73.9 °F 69.1 °F 85% 30.02 in 10.0 mi SSW 3.5 mph - N/A   Mostly Cloudy
5:53 AM 73.0 °F 70.0 °F 90% 30.01 in 9.0 mi South 5.8 mph - 0.00 in   Mostly Cloudy
6:02 AM 73.4 °F 69.8 °F 88% 30.03 in 8.0 mi South 5.8 mph - N/A   Mostly Cloudy
6:53 AM 73.0 °F 70.0 °F 90% 30.01 in 5.0 mi SSW 6.9 mph - N/A   Overcast
7:11 AM 73.4 °F 69.8 °F 88% 30.04 in 4.0 mi SW 4.6 mph - N/A   Overcast
7:23 AM 73.4 °F 71.6 °F 94% 30.05 in 2.5 mi South 8.1 mph - 0.01 in Rain Light Rain
7:46 AM 73.4 °F 71.6 °F 94% 30.05 in 1.8 mi SSE 6.9 mph - 0.07 in Rain Rain
7:49 AM 73.4 °F 69.8 °F 88% 30.05 in 2.0 mi South 6.9 mph - 0.07 in Rain Rain
7:53 AM 72.0 °F 70.0 °F 93% 30.03 in 2.5 mi SSE 9.2 mph - 0.07 in Rain Light Rain
7:59 AM 71.6 °F 69.8 °F 94% 30.05 in 6.0 mi Variable 5.8 mph - 0.00 in Rain Light Rain
8:06 AM 71.6 °F 69.8 °F 94% 30.05 in 7.0 mi SSE 5.8 mph - 0.01 in Rain Light Rain
8:13 AM 71.6 °F 69.8 °F 94% 30.04 in 4.0 mi SSE 6.9 mph - 0.02 in Rain Light Rain
8:53 AM 72.0 °F 69.1 °F 91% 30.02 in 10.0 mi Calm Calm - 0.06 in   Overcast
9:53 AM 75.0 °F 72.0 °F 90% 30.01 in 9.0 mi South 5.8 mph - N/A   Mostly Cloudy
10:53 AM 77.0 °F 72.0 °F 84% 30.00 in 6.0 mi SSW 8.1 mph - N/A   Haze
11:03 AM 77.0 °F 71.6 °F 83% 30.02 in 7.0 mi SSW 6.9 mph - N/A   Mostly Cloudy
11:39 AM 78.8 °F 71.6 °F 78% 30.01 in 7.0 mi SSW 4.6 mph - 0.00 in   Overcast
11:53 AM 79.0 °F 72.0 °F 79% 29.99 in 8.0 mi SSW 5.8 mph - 0.00 in   Mostly Cloudy
12:38 PM 78.8 °F 68.0 °F 69% 30.00 in 10.0 mi North 8.1 mph - 0.00 in Rain , Thunderstorm Thunderstorms and Rain
12:44 PM 75.2 °F 69.8 °F 83% 30.00 in 1.0 mi WNW 10.4 mph 25.3 mph 0.14 in Rain , Thunderstorm Thunderstorms and Rain
12:53 PM 72.0 °F 68.0 °F 87% 29.98 in 1.5 mi North 17.3 mph 26.5 mph 0.23 in Rain , Thunderstorm Thunderstorms and Rain
12:55 PM 71.6 °F 68.0 °F 88% 29.99 in 2.0 mi North 16.1 mph 26.5 mph 0.00 in Rain , Thunderstorm Thunderstorms and Rain
1:05 PM 71.6 °F 68.0 °F 88% 30.01 in 10.0 mi North 6.9 mph 21.9 mph 0.00 in Rain , Thunderstorm Thunderstorms and Rain
1:24 PM 71.6 °F 68.0 °F 88% 30.00 in 2.5 mi SE 5.8 mph - 0.06 in Rain , Thunderstorm Thunderstorms and Rain
1:31 PM 71.6 °F 68.0 °F 88% 29.99 in 8.0 mi East 9.2 mph - 0.07 in Rain , Thunderstorm Thunderstorms and Rain
1:53 PM 71.1 °F 68.0 °F 90% 29.98 in 10.0 mi SE 8.1 mph - 0.07 in Rain , Thunderstorm Thunderstorms and Rain
2:53 PM 73.9 °F 69.1 °F 85% 29.95 in 10.0 mi Calm Calm - 0.00 in Rain , Thunderstorm Thunderstorms and Rain
3:01 PM 73.4 °F 69.8 °F 88% 29.96 in 10.0 mi South 3.5 mph - 0.00 in   Scattered Clouds
3:53 PM 77.0 °F 70.0 °F 79% 29.90 in 10.0 mi SSW 5.8 mph - 0.00 in   Scattered Clouds
4:53 PM 77.0 °F 70.0 °F 79% 29.91 in 10.0 mi SSW 4.6 mph - N/A   Clear
5:53 PM 78.1 °F 71.1 °F 79% 29.90 in 10.0 mi SSW 10.4 mph - N/A   Partly Cloudy
6:53 PM 77.0 °F 71.1 °F 82% 29.88 in 10.0 mi SW 3.5 mph - N/A   Clear
7:53 PM 75.0 °F 71.1 °F 87% 29.88 in 9.0 mi SSW 3.5 mph - N/A   Clear
8:53 PM 73.0 °F 71.1 °F 93% 29.91 in 6.0 mi SW 4.6 mph - N/A   Clear
9:53 PM 73.0 °F 69.1 °F 87% 29.90 in 6.0 mi SW 3.5 mph - N/A   Clear
10:53 PM 72.0 °F 69.1 °F 91% 29.88 in 6.0 mi WSW 3.5 mph - N/A   Clear
11:53 PM 72.0 °F 69.1 °F 91% 29.88 in 6.0 mi Calm Calm - N/A   Clear